Location: Hertford
(51.8000°N, 0.0667°W)
Time: 09:08:16
(UTC+00:00)

THORAD AGENA D DEB - Visible Passes

Search period start: 28 October 2021 00:00
Search period end: 07 November 2021 00:00
Orbit: 962 x 972 km, 100.0° (Epoch: 26 October)

Date Brightness Start Highest point End Pass type
(mag) Time Alt. Az. Time Alt. Az. Time Alt. Az.
28 Oct ? 17:43:42 10° NNW 17:44:23 10° NW 17:45:04 10° NW visible
31 Oct ? 17:05:25 10° N 17:08:56 16° NW 17:12:25 10° W visible
01 Nov ? 17:28:27 10° NNW 17:30:45 12° NW 17:33:03 10° WNW visible
05 Nov ? 17:13:53 10° N 17:17:03 15° NW 17:20:15 10° WNW visible
06 Nov ? 17:37:06 10° NNW 17:38:51 11° NW 17:40:37 10° NW visible
